TimeCDT,TemperatureF,Dew PointF,Humidity,Sea Level PressureIn,VisibilityMPH,Wind Direction,Wind SpeedMPH,Gust SpeedMPH,PrecipitationIn,Events,Conditions,WindDirDegrees,DateUTC
12:55 AM,46.2,43.0,88,29.97,10.0,SSE,5.8,-,N/A,,Clear,150,2012-10-04 05:55:00
1:55 AM,49.1,44.8,85,29.96,10.0,SSE,4.6,-,N/A,,Clear,160,2012-10-04 06:55:00
2:55 AM,42.6,41.2,95,29.94,10.0,SSE,5.8,-,N/A,,Clear,150,2012-10-04 07:55:00
3:55 AM,52.5,47.3,82,29.93,10.0,South,8.1,-,N/A,,Clear,170,2012-10-04 08:55:00
4:55 AM,53.1,48.0,83,29.92,10.0,South,6.9,-,N/A,,Clear,170,2012-10-04 09:55:00
5:55 AM,50.7,47.5,89,29.91,10.0,Variable,3.5,-,N/A,,Clear,0,2012-10-04 10:55:00
6:55 AM,51.8,48.2,88,29.91,10.0,South,8.1,-,N/A,,Partly Cloudy,170,2012-10-04 11:55:00
7:55 AM,55.4,48.2,77,29.91,10.0,South,6.9,-,N/A,,Partly Cloudy,190,2012-10-04 12:55:00
8:55 AM,59.0,48.2,67,29.90,10.0,SW,9.2,-,N/A,,Overcast,220,2012-10-04 13:55:00
9:55 AM,59.0,46.4,63,29.92,10.0,West,9.2,-,N/A,,Overcast,260,2012-10-04 14:55:00
10:55 AM,59.0,42.8,55,29.94,10.0,WSW,16.1,23.0,N/A,,Mostly Cloudy,250,2012-10-04 15:55:00
11:55 AM,60.8,42.8,52,29.95,10.0,West,16.1,26.5,N/A,,Scattered Clouds,260,2012-10-04 16:55:00
12:55 PM,60.8,41.0,48,29.95,10.0,West,13.8,-,N/A,,Partly Cloudy,280,2012-10-04 17:55:00
1:55 PM,60.8,39.2,45,29.96,10.0,West,16.1,26.5,N/A,,Mostly Cloudy,260,2012-10-04 18:55:00
2:55 PM,60.8,37.4,42,29.97,10.0,West,19.6,28.8,N/A,,Partly Cloudy,280,2012-10-04 19:55:00
3:55 PM,59.0,35.6,42,29.99,10.0,West,21.9,29.9,N/A,,Clear,270,2012-10-04 20:55:00
4:55 PM,57.2,33.8,41,30.00,10.0,West,18.4,26.5,N/A,,Clear,260,2012-10-04 21:55:00
5:55 PM,53.1,32.9,46,30.03,10.0,West,17.3,24.2,N/A,,Clear,280,2012-10-04 22:55:00
6:55 PM,50.0,32.0,50,30.06,10.0,West,12.7,-,N/A,,Clear,280,2012-10-04 23:55:00
7:55 PM,46.4,32.0,57,30.08,10.0,West,16.1,24.2,N/A,,Clear,280,2012-10-05 00:55:00
8:55 PM,44.6,32.0,61,30.09,10.0,West,12.7,20.7,N/A,,Clear,280,2012-10-05 01:55:00
9:55 PM,42.8,30.2,61,30.10,10.0,West,13.8,20.7,N/A,,Clear,270,2012-10-05 02:55:00
10:55 PM,41.0,30.2,65,30.11,10.0,West,9.2,-,N/A,,Partly Cloudy,280,2012-10-05 03:55:00
11:55 PM,41.7,30.2,64,30.11,10.0,West,9.2,-,N/A,,Mostly Cloudy,280,2012-10-05 04:55:00